Sussex, NJ

5:05 PM EST on November 11, 2019 (GMT -0500)
Sussex

Weather History for KFWN - September, 2019

Change the Weather History Date:

Wednesday, September 25, 2019

  Actual Average Record
Temperature  
Mean Temperature 62 °F -  
Max Temperature 80 °F 67 °F 89 °F (2017)
Min Temperature 44 °F 42 °F 27 °F (1963)
Degree Days  
Heating Degree Days 4    
Growing Degree Days 12 (Base 50)    
Moisture  
Dew Point 48 °F    
Average Humidity 71    
Maximum Humidity 97    
Minimum Humidity 29    
Precipitation  
Precipitation 0.00 in - - ()
Sea Level Pressure  
Sea Level Pressure 29.88 in    
Wind  
Wind Speed 1 mph ()    
Max Wind Speed 8 mph    
Max Gust Speed 17 mph    
Visibility 10.0 miles    
Events      
Averages and records for this station are not official NWS values.
T = Trace of Precipitation, MM = Missing Value Source: Averaged Metar Reports

Daily Weather History Graph

Daily Weather History Graph

Search for Another Location

Airport or City:

Astronomy

Sep. 25, 2019 Rise Set
Actual Time 6:48 AM EDT 6:50 PM EDT
Civil Twilight 6:21 AM EDT 7:18 PM EDT
Nautical Twilight 5:49 AM EDT 7:50 PM EDT
Astronomical Twilight 5:16 AM EDT 8:23 PM EDT
Moon 2:36 AM EDT (9/25) 5:23 PM EDT (9/25)
Length of Visible Light 12h 57m
Length of Day
12h 02m
Waning Crescent, 14% of the Moon is Illuminated
Sep 25
Waning Crescent
Sep 28
New
Oct 5
First Quarter
Oct 13
Full
Oct 21
Last Quarter

Hourly Weather History & Observations

Time (EDT) Temp. Dew Point Humidity Pressure Visibility Wind Dir Wind Speed Gust Speed Precip Events Conditions
12:53 AM 48.9 °F 46.9 °F 93% 29.90 in 10.0 mi Calm Calm - N/A   Clear
1:53 AM 48.0 °F 46.9 °F 96% 29.89 in 10.0 mi Calm Calm - N/A   Clear
2:53 AM 46.9 °F 44.1 °F 90% 29.88 in 10.0 mi Calm Calm - N/A   Scattered Clouds
3:53 AM 46.9 °F 44.1 °F 90% 29.89 in 10.0 mi Calm Calm - N/A   Clear
4:53 AM 45.0 °F 43.0 °F 93% 29.91 in 10.0 mi Calm Calm - N/A   Clear
5:53 AM 44.1 °F 42.1 °F 93% 29.91 in 10.0 mi Calm Calm - N/A   Partly Cloudy
6:53 AM 44.1 °F 42.1 °F 93% 29.93 in 10.0 mi Calm Calm - 0.00 in   Clear
7:53 AM 46.9 °F 46.0 °F 97% 29.94 in 10.0 mi Calm Calm - N/A   Clear
8:53 AM 55.0 °F 50.0 °F 83% 29.93 in 10.0 mi Calm Calm - N/A   Clear
9:53 AM 61.0 °F 52.0 °F 72% 29.93 in 10.0 mi SSW 3.5 mph - N/A   Clear
10:53 AM 69.1 °F 54.0 °F 58% 29.92 in 10.0 mi Variable 3.5 mph - N/A   Clear
11:53 AM 73.0 °F 53.1 °F 49% 29.91 in 10.0 mi West 4.6 mph - N/A   Clear
12:53 PM 75.0 °F 52.0 °F 44% 29.88 in 10.0 mi Variable 5.8 mph - N/A   Partly Cloudy
1:53 PM 75.0 °F 50.0 °F 41% 29.85 in 10.0 mi Variable 4.6 mph - N/A   Scattered Clouds
2:53 PM 78.1 °F 46.0 °F 32% 29.83 in 10.0 mi West 8.1 mph 17.3 mph N/A   Clear
3:53 PM 79.0 °F 44.1 °F 29% 29.81 in 10.0 mi NW 8.1 mph - N/A   Clear
4:53 PM 79.0 °F 46.9 °F 32% 29.82 in 10.0 mi Variable 4.6 mph - N/A   Clear
5:53 PM 77.0 °F 46.9 °F 34% 29.82 in 10.0 mi SW 3.5 mph - N/A   Clear
6:53 PM 66.9 °F 51.1 °F 57% 29.83 in 10.0 mi WSW 3.5 mph - N/A   Clear
7:53 PM 60.1 °F 52.0 °F 75% 29.85 in 10.0 mi Calm Calm - N/A   Clear
8:53 PM 55.9 °F 51.1 °F 84% 29.86 in 10.0 mi Calm Calm - N/A   Clear
9:53 PM 55.0 °F 51.1 °F 86% 29.88 in 10.0 mi Calm Calm - N/A   Clear
10:53 PM 53.1 °F 50.0 °F 89% 29.88 in 10.0 mi Calm Calm - N/A   Clear
11:53 PM 52.0 °F 50.0 °F 93% 29.87 in 10.0 mi Calm Calm - N/A   Clear